Weather History for Cincinnati, OH

Change the Weather History Date:

Wednesday, August 14, 2013

  Actual Average Record
Temperature  
Mean Temperature 62 °F -  
Max Temperature 72 °F 85 °F 95 °F (1988)
Min Temperature 52 °F 64 °F 50 °F (1964)
Degree Days  
Heating Degree Days 4    
Growing Degree Days 12 (Base 50)    
Moisture  
Dew Point 50 °F    
Average Humidity 69    
Maximum Humidity 97    
Minimum Humidity 42    
Precipitation  
Precipitation 0.00 in - - ()
Sea Level Pressure  
Sea Level Pressure 30.14 in    
Wind  
Wind Speed 2 mph (NE)    
Max Wind Speed 8 mph    
Max Gust Speed 16 mph    
Visibility 10 miles    
Events      
Averages and records for this station are not official NWS values.
T = Trace of Precipitation, MM = Missing Value Source: NWS Daily Summary

Daily Weather History Graph

Daily Weather History Graph

Search for Another Location

Airport:

Trip Planner

Search our weather history database for the weather conditions in past years. The results will help you decide how hot, cold, wet, or windy it might be!

Date:

Astronomy

Aug. 14, 2013 Rise Set
Actual Time 6:50 AM EDT 8:33 PM EDT
Civil Twilight 6:21 AM EDT 9:02 PM EDT
Nautical Twilight 5:46 AM EDT 9:36 PM EDT
Astronomical Twilight 5:09 AM EDT 10:13 PM EDT
Moon 2:44 PM EDT (8/14) 12:13 AM EDT (8/14)
Length of Visible Light 14h 40m
Length of Day
13h 43m
First Quarter, 52% of the Moon is Illuminated
Aug 14
First Quarter
Aug 20
Full
Aug 28
Last Quarter
Sep 5
New
Sep 12
First Quarter

Hourly Weather History & Observations

Time (EDT) Temp. Dew Point Humidity Pressure Visibility Wind Dir Wind Speed Gust Speed Precip Events Conditions
12:53 AM 57.9 °F 50.0 °F 75% 30.08 in 10.0 mi Calm Calm - N/A   Clear
1:53 AM 55.9 °F 52.0 °F 87% 30.08 in 10.0 mi Calm Calm - N/A   Clear
2:53 AM 54.0 °F 52.0 °F 93% 30.08 in 10.0 mi Calm Calm - N/A   Clear
3:53 AM 53.1 °F 52.0 °F 96% 30.09 in 10.0 mi Calm Calm - N/A   Clear
4:53 AM 53.1 °F 52.0 °F 96% 30.10 in 10.0 mi Calm Calm - N/A   Clear
5:53 AM 52.0 °F 51.1 °F 97% 30.11 in 10.0 mi Calm Calm - N/A   Clear
6:53 AM 53.1 °F 50.0 °F 89% 30.14 in 10.0 mi NE 4.6 mph - N/A   Clear
7:53 AM 55.9 °F 51.1 °F 84% 30.15 in 10.0 mi North 4.6 mph - N/A   Clear
8:53 AM 59.0 °F 50.0 °F 72% 30.17 in 10.0 mi ENE 4.6 mph - N/A   Clear
9:53 AM 62.1 °F 48.0 °F 60% 30.17 in 10.0 mi ENE 8.1 mph - N/A   Clear
10:53 AM 64.9 °F 48.0 °F 54% 30.17 in 10.0 mi Variable 4.6 mph - N/A   Clear
11:53 AM 66.9 °F 46.9 °F 49% 30.17 in 10.0 mi NW 5.8 mph - N/A   Scattered Clouds
12:53 PM 68.0 °F 46.0 °F 45% 30.17 in 10.0 mi Variable 3.5 mph - N/A   Scattered Clouds
1:53 PM 70.0 °F 46.9 °F 44% 30.16 in 10.0 mi Variable 5.8 mph - N/A   Partly Cloudy
2:53 PM 70.0 °F 46.9 °F 44% 30.15 in 10.0 mi ENE 6.9 mph - N/A   Partly Cloudy
3:53 PM 70.0 °F 46.9 °F 44% 30.15 in 10.0 mi NNE 4.6 mph 16.1 mph N/A   Partly Cloudy
4:53 PM 71.1 °F 46.9 °F 42% 30.14 in 10.0 mi Variable 5.8 mph - N/A   Partly Cloudy
5:53 PM 71.1 °F 50.0 °F 47% 30.14 in 10.0 mi ENE 8.1 mph - N/A   Scattered Clouds
6:53 PM 69.1 °F 48.9 °F 49% 30.14 in 10.0 mi ENE 8.1 mph - N/A   Clear
7:53 PM 64.0 °F 51.1 °F 63% 30.14 in 10.0 mi NE 5.8 mph - N/A   Clear
8:53 PM 61.0 °F 50.0 °F 67% 30.14 in 10.0 mi Calm Calm - N/A   Clear
9:53 PM 57.9 °F 53.1 °F 84% 30.17 in 10.0 mi Calm Calm - N/A   Clear
10:53 PM 57.0 °F 54.0 °F 89% 30.18 in 10.0 mi Calm Calm - N/A   Clear
11:53 PM 55.0 °F 53.1 °F 93% 30.19 in 10.0 mi Calm Calm - N/A   Clear